• în Republica Moldova
  • Lista ţărilor
  • Pe 7 zile
  • Temperatura apei
  • Hartă satelitară
  • Meteo pe hartă
  • Widget-uri
  • user-avatar
    Intrare

    Meteo pe oră la Shusha

    Astăzi, 25 Iulie, Marţi

    Timp Temperatura Precipitaţii Vânt Presiune Umiditate
    00:00 +18°C° 0 mm 2 m/s 657 mmHg 76%
    01:00 +18°C° 0 mm 2 m/s 657 mmHg 75%
    02:00 +18°C° 0 mm 1 m/s 657 mmHg 74%
    03:00 +18°C° 0 mm 1 m/s 657 mmHg 73%
    04:00 +18°C° 0 mm 1 m/s 657 mmHg 70%
    05:00 +19°C° 0 mm 1 m/s 657 mmHg 68%
    06:00 +19°C° 0 mm 1 m/s 657 mmHg 65%
    07:00 +20°C° 0 mm 2 m/s 658 mmHg 58%
    08:00 +23°C° 0 mm 2 m/s 658 mmHg 52%
    09:00 +25°C° 0 mm 2 m/s 658 mmHg 46%
    10:00 +26°C° 0 mm 3 m/s 658 mmHg 42%
    11:00 +27°C° 0 mm 3 m/s 658 mmHg 39%
    12:00 +28°C° 0 mm 3 m/s 658 mmHg 36%
    13:00 +29°C° 0,1 mm 3 m/s 658 mmHg 35%
    14:00 +29°C° 0,1 mm 3 m/s 657 mmHg 35%
    15:00 +30°C° 0,1 mm 3 m/s 657 mmHg 34%
    16:00 +29°C° 0,2 mm 3 m/s 657 mmHg 36%
    17:00 +28°C° 0,2 mm 3 m/s 657 mmHg 38%
    18:00 +28°C° 0,2 mm 3 m/s 656 mmHg 41%
    19:00 +26°C° 0 mm 3 m/s 656 mmHg 47%
    20:00 +24°C° 0 mm 2 m/s 656 mmHg 53%
    21:00 +21°C° 0 mm 2 m/s 656 mmHg 59%
    22:00 +20°C° 0 mm 2 m/s 656 mmHg 60%
    23:00 +20°C° 0 mm 2 m/s 657 mmHg 62%

    Mâine, 26 Iulie, Miercuri

    Timp Temperatura Precipitaţii Vânt Presiune Umiditate
    00:00 +19°C° 0 mm 2 m/s 657 mmHg 63%
    01:00 +19°C° 0 mm 2 m/s 657 mmHg 64%
    02:00 +19°C° 0 mm 2 m/s 656 mmHg 64%
    03:00 +18°C° 0 mm 2 m/s 656 mmHg 65%
    04:00 +20°C° 0 mm 1 m/s 657 mmHg 63%
    05:00 +20°C° 0 mm 1 m/s 657 mmHg 61%
    06:00 +21°C° 0 mm 1 m/s 657 mmHg 60%
    07:00 +23°C° 0 mm 1 m/s 658 mmHg 53%
    08:00 +25°C° 0 mm 2 m/s 658 mmHg 46%
    09:00 +27°C° 0 mm 2 m/s 658 mmHg 39%
    10:00 +28°C° 0 mm 2 m/s 659 mmHg 37%
    11:00 +29°C° 0 mm 3 m/s 659 mmHg 34%
    12:00 +30°C° 0 mm 3 m/s 659 mmHg 31%
    13:00 +31°C° 0 mm 3 m/s 658 mmHg 30%
    14:00 +32°C° 0 mm 4 m/s 658 mmHg 29%
    15:00 +33°C° 0 mm 4 m/s 658 mmHg 28%
    16:00 +32°C° 0 mm 4 m/s 658 mmHg 31%
    17:00 +30°C° 0 mm 4 m/s 658 mmHg 33%
    18:00 +29°C° 0 mm 4 m/s 658 mmHg 35%
    19:00 +27°C° 0 mm 3 m/s 658 mmHg 41%
    20:00 +25°C° 0 mm 2 m/s 658 mmHg 46%
    21:00 +23°C° 0 mm 2 m/s 658 mmHg 52%
    22:00 +21°C° 0 mm 2 m/s 658 mmHg 53%
    23:00 +21°C° 0 mm 2 m/s 658 mmHg 53%

    Poimâine, 27 Iulie, Joi

    Timp Temperatura Precipitaţii Vânt Presiune Umiditate
    00:00 +20°C° 0 mm 2 m/s 658 mmHg 54%
    01:00 +20°C° 0 mm 2 m/s 658 mmHg 54%
    02:00 +20°C° 0 mm 2 m/s 658 mmHg 54%
    03:00 +19°C° 0 mm 2 m/s 658 mmHg 54%
    04:00 +20°C° 0 mm 2 m/s 658 mmHg 53%
    05:00 +20°C° 0 mm 2 m/s 658 mmHg 53%
    06:00 +21°C° 0 mm 2 m/s 659 mmHg 52%
    07:00 +24°C° 0 mm 2 m/s 659 mmHg 47%
    08:00 +26°C° 0 mm 2 m/s 660 mmHg 41%
    09:00 +28°C° 0 mm 2 m/s 660 mmHg 35%
    10:00 +29°C° 0 mm 2 m/s 660 mmHg 33%
    11:00 +30°C° 0 mm 3 m/s 660 mmHg 30%
    12:00 +31°C° 0 mm 3 m/s 660 mmHg 27%
    13:00 +33°C° 0 mm 3 m/s 660 mmHg 27%
    14:00 +33°C° 0 mm 3 m/s 660 mmHg 26%
    15:00 +34°C° 0 mm 3 m/s 659 mmHg 25%
    16:00 +33°C° 0 mm 3 m/s 659 mmHg 27%
    17:00 +31°C° 0 mm 3 m/s 659 mmHg 29%
    18:00 +31°C° 0 mm 3 m/s 659 mmHg 31%
    19:00 +29°C° 0 mm 2 m/s 659 mmHg 35%
    20:00 +26°C° 0 mm 2 m/s 659 mmHg 39%
    21:00 +24°C° 0 mm 2 m/s 659 mmHg 43%
    22:00 +24°C° 0 mm 2 m/s 659 mmHg 43%
    23:00 +23°C° 0 mm 2 m/s 659 mmHg 44%

    28 Iulie, Vineri

    Timp Temperatura Precipitaţii Vânt Presiune Umiditate
    00:00 +23°C° 0 mm 2 m/s 659 mmHg 44%
    01:00 +21°C° 0 mm 2 m/s 659 mmHg 44%
    02:00 +21°C° 0 mm 2 m/s 659 mmHg 44%
    03:00 +21°C° 0 mm 2 m/s 658 mmHg 44%
    04:00 +21°C° 0 mm 2 m/s 659 mmHg 43%
    05:00 +23°C° 0 mm 2 m/s 659 mmHg 42%
    06:00 +23°C° 0 mm 2 m/s 659 mmHg 41%
    07:00 +25°C° 0 mm 2 m/s 660 mmHg 36%
    08:00 +28°C° 0 mm 2 m/s 660 mmHg 32%
    09:00 +30°C° 0 mm 2 m/s 661 mmHg 27%
    10:00 +31°C° 0 mm 2 m/s 660 mmHg 25%
    11:00 +34°C° 0 mm 3 m/s 660 mmHg 23%
    12:00 +35°C° 0 mm 3 m/s 660 mmHg 21%
    13:00 +35°C° 0 mm 3 m/s 660 mmHg 21%
    14:00 +36°C° 0 mm 3 m/s 660 mmHg 20%
    15:00 +37°C° 0 mm 3 m/s 660 mmHg 20%
    16:00 +36°C° 0 mm 3 m/s 659 mmHg 22%
    17:00 +35°C° 0 mm 2 m/s 659 mmHg 24%
    18:00 +34°C° 0 mm 2 m/s 659 mmHg 27%
    19:00 +31°C° 0 mm 2 m/s 659 mmHg 30%
    20:00 +28°C° 0 mm 2 m/s 659 mmHg 34%
    21:00 +26°C° 0 mm 2 m/s 659 mmHg 38%
    22:00 +26°C° 0 mm 2 m/s 659 mmHg 38%
    23:00 +25°C° 0 mm 2 m/s 659 mmHg 38%

    29 Iulie, Sâmbătă

    Timp Temperatura Precipitaţii Vânt Presiune Umiditate
    00:00 +25°C° 0 mm 2 m/s 659 mmHg 38%
    01:00 +25°C° 0 mm 2 m/s 658 mmHg 37%
    02:00 +24°C° 0 mm 2 m/s 658 mmHg 37%
    03:00 +24°C° 0 mm 2 m/s 658 mmHg 37%
    04:00 +24°C° 0 mm 2 m/s 659 mmHg 36%
    05:00 +25°C° 0 mm 2 m/s 659 mmHg 36%
    06:00 +25°C° 0 mm 2 m/s 659 mmHg 35%
    07:00 +27°C° 0 mm 2 m/s 660 mmHg 32%
    08:00 +30°C° 0 mm 2 m/s 660 mmHg 28%
    09:00 +32°C° 0 mm 2 m/s 661 mmHg 25%
    10:00 +35°C° 0 mm 2 m/s 660 mmHg 23%
    11:00 +36°C° 0 mm 3 m/s 660 mmHg 21%
    12:00 +37°C° 0 mm 3 m/s 660 mmHg 19%
    13:00 +38°C° 0 mm 3 m/s 660 mmHg 19%
    14:00 +38°C° 0 mm 3 m/s 660 mmHg 18%
    15:00 +39°C° 0 mm 3 m/s 659 mmHg 18%
    16:00 +38°C° 0 mm 3 m/s 659 mmHg 20%
    17:00 +37°C° 0 mm 2 m/s 659 mmHg 22%
    18:00 +36°C° 0 mm 2 m/s 659 mmHg 24%
    19:00 +34°C° 0 mm 2 m/s 659 mmHg 28%
    20:00 +31°C° 0 mm 2 m/s 659 mmHg 31%
    21:00 +28°C° 0 mm 2 m/s 659 mmHg 35%
    22:00 +27°C° 0 mm 2 m/s 659 mmHg 37%
    23:00 +27°C° 0 mm 2 m/s 659 mmHg 40%

    30 Iulie, Duminică

    Timp Temperatura Precipitaţii Vânt Presiune Umiditate
    00:00 +26°C° 0 mm 2 m/s 659 mmHg 43%
    01:00 +25°C° 0 mm 2 m/s 660 mmHg 45%
    02:00 +24°C° 0 mm 2 m/s 660 mmHg 46%
    03:00 +23°C° 0 mm 1 m/s 660 mmHg 48%
    04:00 +24°C° 0 mm 1 m/s 660 mmHg 49%
    05:00 +24°C° 0 mm 1 m/s 661 mmHg 49%
    06:00 +24°C° 0 mm 1 m/s 661 mmHg 49%
    07:00 +26°C° 0 mm 2 m/s 661 mmHg 45%
    08:00 +28°C° 0 mm 2 m/s 662 mmHg 40%
    09:00 +30°C° 0 mm 3 m/s 662 mmHg 36%
    10:00 +31°C° 0 mm 3 m/s 662 mmHg 33%
    11:00 +33°C° 0 mm 4 m/s 662 mmHg 31%
    12:00 +34°C° 0 mm 4 m/s 662 mmHg 29%
    13:00 +34°C° 0 mm 4 m/s 662 mmHg 28%
    14:00 +34°C° 0 mm 4 m/s 661 mmHg 28%
    15:00 +35°C° 0 mm 3 m/s 661 mmHg 27%
    16:00 +34°C° 0 mm 4 m/s 661 mmHg 30%
    17:00 +33°C° 0 mm 4 m/s 661 mmHg 33%
    18:00 +32°C° 0 mm 4 m/s 661 mmHg 36%
    19:00 +29°C° 0 mm 3 m/s 661 mmHg 42%
    20:00 +26°C° 0 mm 3 m/s 661 mmHg 49%
    21:00 +24°C° 0 mm 2 m/s 661 mmHg 55%
    22:00 +24°C° 0 mm 2 m/s 661 mmHg 57%
    23:00 +23°C° 0 mm 2 m/s 661 mmHg 58%
    Arată mai mult